Voltar ao catálogo

STARLINK-5653

AtivoComunicaçõesVLEO
NORAD 55345·PAYLOAD·🇺🇸 United States

Lançado Jan 26, 2023 de Cape Canaveral Space Force Station

Loading…

Próximas Passagens (próximas 24 horas)

TLE

AtualizadoSource: CelesTrak SupGP

Época: Sep 15, 2026, 01:38 UTC

1 55345C 23013Q   26258.06854167  .00032533  00000+0  11784-2 0  2587
2 55345  43.0004 299.5401 0001184 265.0836  37.9785 15.27560255    17

Acompanhe STARLINK-5653 em tempo real com AllMySat

Download on the App Store